When you browse on this site, cookies collect data to enhance your experience and personalize the content and advertising you see.
Visit our Privacy Policy to learn more. By continuing to use the site, you agree to this use of cookies and data.
  • In Czech Republic
  • List of Countries
  • For 7 days
  • Water Temperature
  • Satellite Maps
  • Weather Map
  • Weather Widgets
  • user-avatar
    Login

    Hourly Weather Takeo

    Today, 20 June, Thursday

    Time Temperature Precipitation Wind Pressure Humidity
    00:00 +29°C° 0 mm 2 mps 755 mmHg 80%
    01:00 +28°C° 0 mm 2 mps 755 mmHg 84%
    02:00 +28°C° 0 mm 2 mps 754 mmHg 84%
    03:00 +28°C° 0 mm 2 mps 754 mmHg 85%
    04:00 +28°C° 0 mm 2 mps 754 mmHg 86%
    05:00 +28°C° 0 mm 2 mps 754 mmHg 84%
    06:00 +29°C° 0 mm 2 mps 755 mmHg 82%
    07:00 +30°C° 0 mm 1 mps 755 mmHg 76%
    08:00 +31°C° 0 mm 1 mps 755 mmHg 70%
    09:00 +34°C° 0 mm 2 mps 755 mmHg 65%
    10:00 +35°C° 0 mm 2 mps 756 mmHg 59%
    11:00 +36°C° 0 mm 3 mps 755 mmHg 55%
    12:00 +37°C° 0 mm 3 mps 755 mmHg 52%
    13:00 +38°C° 0 mm 3 mps 754 mmHg 48%
    14:00 +37°C° 0.1 mm 3 mps 754 mmHg 51%
    15:00 +36°C° 0.1 mm 4 mps 753 mmHg 54%
    16:00 +36°C° 0.1 mm 5 mps 753 mmHg 57%
    17:00 +35°C° 0.2 mm 4 mps 753 mmHg 60%
    18:00 +33°C° 0.2 mm 3 mps 753 mmHg 64%
    19:00 +31°C° 0.2 mm 3 mps 753 mmHg 68%
    20:00 +31°C° 0 mm 3 mps 754 mmHg 69%
    21:00 +31°C° 0 mm 2 mps 754 mmHg 71%
    22:00 +30°C° 0 mm 2 mps 755 mmHg 72%
    23:00 +30°C° 0 mm 2 mps 754 mmHg 74%

    Tomorrow, 21 June, Friday

    Time Temperature Precipitation Wind Pressure Humidity
    00:00 +29°C° 0 mm 2 mps 754 mmHg 76%
    01:00 +29°C° 0 mm 1 mps 754 mmHg 78%
    02:00 +29°C° 0 mm 2 mps 754 mmHg 79%
    03:00 +29°C° 0 mm 2 mps 753 mmHg 79%
    04:00 +28°C° 0 mm 2 mps 753 mmHg 80%
    05:00 +29°C° 0 mm 2 mps 754 mmHg 80%
    06:00 +29°C° 0 mm 2 mps 754 mmHg 79%
    07:00 +29°C° 0 mm 2 mps 754 mmHg 79%
    08:00 +31°C° 0 mm 3 mps 754 mmHg 72%
    09:00 +34°C° 0 mm 3 mps 755 mmHg 66%
    10:00 +35°C° 0 mm 3 mps 755 mmHg 59%
    11:00 +36°C° 0.2 mm 3 mps 754 mmHg 56%
    12:00 +37°C° 0.2 mm 3 mps 754 mmHg 53%
    13:00 +38°C° 0.2 mm 3 mps 754 mmHg 50%
    14:00 +37°C° 1.1 mm 3 mps 753 mmHg 53%
    15:00 +36°C° 1.1 mm 4 mps 753 mmHg 57%
    16:00 +35°C° 1.1 mm 4 mps 752 mmHg 61%
    17:00 +34°C° 0.4 mm 4 mps 752 mmHg 65%
    18:00 +33°C° 0.4 mm 3 mps 753 mmHg 69%
    19:00 +31°C° 0.4 mm 3 mps 753 mmHg 74%
    20:00 +30°C° 0 mm 3 mps 753 mmHg 75%
    21:00 +30°C° 0 mm 2 mps 754 mmHg 76%
    22:00 +30°C° 0 mm 2 mps 754 mmHg 78%
    23:00 +29°C° 0.1 mm 2 mps 754 mmHg 79%

    Day after tomorrow, 22 June, Saturday

    Time Temperature Precipitation Wind Pressure Humidity
    00:00 +29°C° 0.1 mm 2 mps 754 mmHg 80%
    01:00 +29°C° 0.1 mm 2 mps 753 mmHg 81%
    02:00 +29°C° 0.1 mm 2 mps 753 mmHg 82%
    03:00 +28°C° 0.1 mm 1 mps 753 mmHg 83%
    04:00 +28°C° 0.1 mm 1 mps 753 mmHg 84%
    05:00 +29°C° 0 mm 2 mps 753 mmHg 83%
    06:00 +29°C° 0 mm 2 mps 753 mmHg 81%
    07:00 +30°C° 0 mm 2 mps 753 mmHg 80%
    08:00 +31°C° 0 mm 3 mps 753 mmHg 74%
    09:00 +34°C° 0 mm 3 mps 753 mmHg 67%
    10:00 +35°C° 0 mm 4 mps 753 mmHg 61%
    11:00 +36°C° 0.2 mm 4 mps 753 mmHg 57%
    12:00 +37°C° 0.2 mm 4 mps 752 mmHg 53%
    13:00 +38°C° 0.2 mm 4 mps 752 mmHg 50%
    14:00 +37°C° 0.1 mm 4 mps 752 mmHg 51%
    15:00 +37°C° 0.1 mm 4 mps 751 mmHg 53%
    16:00 +37°C° 0.1 mm 4 mps 751 mmHg 54%
    17:00 +35°C° 0.4 mm 4 mps 751 mmHg 61%
    18:00 +34°C° 0.4 mm 3 mps 752 mmHg 67%
    19:00 +31°C° 0.4 mm 3 mps 752 mmHg 74%
    20:00 +31°C° 0 mm 3 mps 753 mmHg 76%
    21:00 +30°C° 0 mm 3 mps 753 mmHg 78%
    22:00 +30°C° 0 mm 2 mps 753 mmHg 81%
    23:00 +29°C° 0 mm 2 mps 753 mmHg 82%

    23 June, Sunday

    Time Temperature Precipitation Wind Pressure Humidity
    00:00 +29°C° 0 mm 2 mps 753 mmHg 83%
    01:00 +29°C° 0 mm 2 mps 752 mmHg 84%
    02:00 +29°C° 0.2 mm 2 mps 752 mmHg 85%
    03:00 +29°C° 0.2 mm 2 mps 752 mmHg 86%
    04:00 +28°C° 0.2 mm 2 mps 752 mmHg 87%
    05:00 +29°C° 0 mm 2 mps 752 mmHg 84%
    06:00 +29°C° 0 mm 2 mps 752 mmHg 82%
    07:00 +30°C° 0 mm 2 mps 753 mmHg 80%
    08:00 +31°C° 0 mm 2 mps 753 mmHg 74%
    09:00 +33°C° 0 mm 3 mps 753 mmHg 69%
    10:00 +35°C° 0 mm 3 mps 753 mmHg 64%
    11:00 +35°C° 0.2 mm 3 mps 752 mmHg 60%
    12:00 +36°C° 0.2 mm 4 mps 752 mmHg 57%
    13:00 +37°C° 0.2 mm 4 mps 751 mmHg 54%
    14:00 +36°C° 0.7 mm 4 mps 751 mmHg 56%
    15:00 +36°C° 0.7 mm 4 mps 751 mmHg 58%
    16:00 +35°C° 0.7 mm 5 mps 750 mmHg 61%
    17:00 +34°C° 0.1 mm 4 mps 751 mmHg 66%
    18:00 +33°C° 0.1 mm 4 mps 751 mmHg 71%
    19:00 +30°C° 0.1 mm 3 mps 752 mmHg 76%
    20:00 +30°C° 0 mm 3 mps 752 mmHg 77%
    21:00 +30°C° 0 mm 2 mps 753 mmHg 78%
    22:00 +30°C° 0 mm 2 mps 753 mmHg 79%
    23:00 +30°C° 0.1 mm 2 mps 753 mmHg 80%

    24 June, Monday

    Time Temperature Precipitation Wind Pressure Humidity
    00:00 +29°C° 0.1 mm 2 mps 753 mmHg 80%
    01:00 +29°C° 0.1 mm 2 mps 753 mmHg 81%
    02:00 +29°C° 0.1 mm 2 mps 753 mmHg 81%
    03:00 +29°C° 0.1 mm 2 mps 753 mmHg 82%
    04:00 +29°C° 0.1 mm 2 mps 752 mmHg 83%
    05:00 +29°C° 0.1 mm 3 mps 753 mmHg 82%
    06:00 +29°C° 0.1 mm 3 mps 753 mmHg 82%
    07:00 +29°C° 0.1 mm 3 mps 754 mmHg 82%
    08:00 +30°C° 0.4 mm 4 mps 754 mmHg 78%
    09:00 +32°C° 0.4 mm 4 mps 754 mmHg 75%
    10:00 +33°C° 0.4 mm 5 mps 755 mmHg 71%
    11:00 +33°C° 1.2 mm 5 mps 754 mmHg 71%
    12:00 +33°C° 1.2 mm 6 mps 754 mmHg 72%
    13:00 +33°C° 1.2 mm 6 mps 753 mmHg 72%
    14:00 +30°C° 0.8 mm 6 mps 753 mmHg 76%
    15:00 +29°C° 0.8 mm 5 mps 753 mmHg 81%
    16:00 +28°C° 0.8 mm 5 mps 753 mmHg 85%
    17:00 +28°C° 0.1 mm 4 mps 753 mmHg 86%
    18:00 +28°C° 0.1 mm 4 mps 754 mmHg 86%
    19:00 +28°C° 0.1 mm 3 mps 754 mmHg 87%
    20:00 +28°C° 0 mm 3 mps 755 mmHg 87%
    21:00 +28°C° 0 mm 4 mps 755 mmHg 87%
    22:00 +28°C° 0 mm 4 mps 756 mmHg 88%
    23:00 +28°C° 0 mm 3 mps 755 mmHg 88%

    25 June, Tuesday

    Time Temperature Precipitation Wind Pressure Humidity
    00:00 +28°C° 0 mm 3 mps 755 mmHg 88%
    01:00 +27°C° 0 mm 3 mps 754 mmHg 88%
    02:00 +27°C° 0 mm 3 mps 754 mmHg 89%
    03:00 +27°C° 0 mm 3 mps 754 mmHg 89%
    04:00 +27°C° 0 mm 3 mps 754 mmHg 89%
    05:00 +27°C° 0 mm 3 mps 754 mmHg 88%
    06:00 +28°C° 0 mm 3 mps 754 mmHg 87%
    07:00 +28°C° 0 mm 3 mps 755 mmHg 87%
    08:00 +28°C° 0 mm 3 mps 755 mmHg 83%
    09:00 +29°C° 0 mm 3 mps 755 mmHg 80%
    10:00 +30°C° 0 mm 4 mps 755 mmHg 76%
    11:00 +30°C° 0 mm 4 mps 755 mmHg 74%
    12:00 +32°C° 0 mm 4 mps 754 mmHg 72%
    13:00 +32°C° 0 mm 4 mps 754 mmHg 70%
    14:00 +33°C° 0.3 mm 5 mps 753 mmHg 69%
    15:00 +33°C° 0.3 mm 6 mps 753 mmHg 68%
    16:00 +33°C° 0.3 mm 7 mps 753 mmHg 66%
    17:00 +32°C° 0.2 mm 6 mps 753 mmHg 72%
    18:00 +30°C° 0.2 mm 5 mps 754 mmHg 78%
    19:00 +28°C° 0.2 mm 5 mps 754 mmHg 83%
    20:00 +28°C° 0.1 mm 5 mps 754 mmHg 85%
    21:00 +28°C° 0.1 mm 5 mps 755 mmHg 87%
    22:00 +28°C° 0.1 mm 4 mps 755 mmHg 88%
    23:00 +28°C° 0.5 mm 5 mps 755 mmHg 89%
    Show more